Regional Weather Roundup
Issued by NWS

Home | Current Version | Previous Version | Graphics & Text | Print | Product List | Glossary On
Versions: 1 2 3 4 5 6 7 8 9 10 11 12 13 14 15 16 17 18 19 20 21 22 23 24 25 26 27 28 29 30 31 32 33 34 35 36 37 38 39 40 41 42 43 44 45 46 47 48 49 50
035
ASUS44 KJAN 041210
RWRMS

MISSISSIPPI HOURLY WEATHER ROUNDUP
NATIONAL WEATHER SERVICE JACKSON MS
600 AM CST WED MAR 04 2015

NOTE: "FAIR: INDICATES FEW OR NO CLOUDS BELOW 12,000 FEET WITH NO
SIGNIFICANT WEATHER AND/OR OBSTRUCTIONS TO VISIBILITY.

MSZ001>002-007>008-010>013-018>021-025>028-034>036-041300-
NORTHWEST MISSISSIPPI

CITY           SKY/WX    TMP DP  RH WIND       PRES   REMARKS
CLARKSDALE     CLOUDY    64  64 100 SW9       29.91R
CLEVELAND      CLOUDY    61  61 100 S9        29.90R
GREENWOOD      MOCLDY    66  63  90 S13       29.92R
6HR MIN TEMP:  66; 6HR MAX TEMP:  68;

GREENVILLE     CLOUDY    66  63  90 S13       29.89R
6HR MIN TEMP:  63; 6HR MAX TEMP:  66;

OLIVE BRANCH   CLOUDY    64 N/A N/A SW15G28   29.87R
OXFORD         CLOUDY    64  63  94 SW9G16    29.92S
TUNICA         CLOUDY    63  61  94 SW9       29.89R
$$

MSZ003>006-009-014>017-022>024-029>033-037>039-041300-
NORTHEAST MISSISSIPPI

CITY           SKY/WX    TMP DP  RH WIND       PRES   REMARKS
COLUMBUS AFB   CLOUDY    65  65 100 S10       29.95R
6HR MIN TEMP:  64; 6HR MAX TEMP:  65; 6HR PCP: TRACE;

CORINTH        CLOUDY    68  63  83 SW14G23   29.88S
GOLDN TRIANGLE CLOUDY    64  61  88 S10       29.95R
STARKVILLE     CLOUDY    64  63  94 S3        29.95S FOG
TUPELO         CLOUDY    65  62  90 SW9       29.92R
6HR MIN TEMP:  65; 6HR MAX TEMP:  67; 6HR PCP:  0.04;

$$

MSZ040-058-041300-
CENTRAL MISSISSIPPI

CITY           SKY/WX    TMP DP  RH WIND       PRES   REMARKS
JACKSON INTL   CLOUDY    67  65  93 S7        29.96R
6HR MIN TEMP:  67; 6HR MAX TEMP:  68;

JACKSON HAWKNS MOCLDY    65  64  97 S7        29.96R
6HR MIN TEMP:  65; 6HR MAX TEMP:  68;

MERIDIAN KEY   LGT RAIN  65  64  97 S6        29.99R
6HR MIN TEMP:  65; 6HR MAX TEMP:  66; 6HR PCP:  0.07;

MERIDIAN NAS   LGT RAIN  66  64  93 S6        29.99S
6HR MIN TEMP:  65; 6HR MAX TEMP:  68; 6HR PCP:  0.02;

VICKSBURG      CLOUDY    66  64  93 S14       29.93R
6HR MIN TEMP:  63; 6HR MAX TEMP:  67;

$$

MSZ059>079-041300-
SOUTH MISSISSIPPI

CITY           SKY/WX    TMP DP  RH WIND       PRES   REMARKS
BROOKHAVEN       N/A     66  66 100 S5        29.99S
HATTIESBURG    MOCLDY    68  66  93 S8        30.00S
6HR MIN TEMP:  68; 6HR MAX TEMP:  69;

MCCOMB         LGT RAIN  67  66  97 S5        29.99R FOG
6HR MIN TEMP:  67; 6HR MAX TEMP:  67; 6HR PCP:  0.01;

NATCHEZ        MOCLDY    66  64  94 S9        29.95R
6HR MIN TEMP:  66; 6HR MAX TEMP:  68;

PINE BELT      MOCLDY    66  63  88 S5        30.01R
6HR MIN TEMP:  66; 6HR MAX TEMP:  66;

$$

MSZ080>082-041300-
COASTAL MISSISSIPPI

CITY           SKY/WX    TMP DP  RH WIND       PRES   REMARKS
BILOXI         CLOUDY    65  65 100 S7        30.00S
6HR MIN TEMP:  65; 6HR MAX TEMP:  67; 6HR PCP: TRACE;

PASCAGOULA     CLOUDY    66  65  96 SE7       30.01R
6HR MIN TEMP:  65; 6HR MAX TEMP:  66;

GULFPORT       FOG       63  62  97 SE6       30.00R VSB 1
6HR MIN TEMP:  63; 6HR MAX TEMP:  65;

$$



USA.gov is the U.S. government's official web portal to all federal, state and local government web resources and services.